TimeCDT,TemperatureF,Dew PointF,Humidity,Sea Level PressureIn,VisibilityMPH,Wind Direction,Wind SpeedMPH,Gust SpeedMPH,PrecipitationIn,Events,Conditions,WindDirDegrees,DateUTC
12:53 AM,73.0,69.1,87,29.86,10.0,SSE,8.1,-,N/A,,Clear,150,2013-10-04 05:53:00
1:53 AM,71.1,68.0,90,29.86,10.0,SSE,8.1,-,N/A,,Clear,150,2013-10-04 06:53:00
2:53 AM,71.1,69.1,93,29.86,10.0,SSE,8.1,-,N/A,,Clear,150,2013-10-04 07:53:00
3:53 AM,71.1,68.0,90,29.86,10.0,SSE,9.2,-,N/A,,Clear,150,2013-10-04 08:53:00
4:53 AM,71.1,69.1,93,29.86,10.0,SSE,10.4,-,N/A,,Partly Cloudy,150,2013-10-04 09:53:00
5:53 AM,70.0,68.0,93,29.86,10.0,SSE,6.9,-,N/A,,Clear,160,2013-10-04 10:53:00
6:53 AM,71.1,68.0,90,29.88,10.0,SE,8.1,-,N/A,,Mostly Cloudy,140,2013-10-04 11:53:00
7:53 AM,71.1,69.1,93,29.89,9.0,SE,8.1,-,N/A,,Clear,140,2013-10-04 12:53:00
8:53 AM,75.0,70.0,84,29.89,10.0,SSE,9.2,17.3,N/A,,Clear,150,2013-10-04 13:53:00
9:53 AM,78.1,71.1,79,29.89,10.0,South,13.8,-,N/A,,Scattered Clouds,180,2013-10-04 14:53:00
10:53 AM,80.1,71.1,74,29.90,10.0,South,12.7,-,N/A,,Partly Cloudy,190,2013-10-04 15:53:00
11:53 AM,84.0,70.0,63,29.90,10.0,South,13.8,21.9,N/A,,Scattered Clouds,180,2013-10-04 16:53:00
12:53 PM,86.0,70.0,59,29.88,10.0,South,11.5,-,N/A,,Clear,170,2013-10-04 17:53:00
1:53 PM,87.1,69.1,55,29.85,10.0,South,15.0,20.7,N/A,,Clear,180,2013-10-04 18:53:00
2:53 PM,84.9,68.0,57,29.83,10.0,South,12.7,23.0,N/A,,Clear,180,2013-10-04 19:53:00
3:53 PM,86.0,68.0,55,29.83,10.0,SSE,15.0,23.0,N/A,,Clear,160,2013-10-04 20:53:00
4:53 PM,82.9,66.9,58,29.83,10.0,SSE,13.8,21.9,N/A,,Clear,160,2013-10-04 21:53:00
5:53 PM,82.0,66.9,60,29.82,10.0,SSE,11.5,-,N/A,,Clear,150,2013-10-04 22:53:00
6:53 PM,80.1,66.9,64,29.82,10.0,SSE,10.4,-,N/A,,Clear,150,2013-10-04 23:53:00
7:53 PM,77.0,66.0,69,29.82,10.0,SSE,9.2,-,N/A,,Clear,160,2013-10-05 00:53:00
8:53 PM,75.0,66.0,73,29.86,10.0,SSE,4.6,-,N/A,,Clear,150,2013-10-05 01:53:00
9:53 PM,75.0,64.9,71,29.86,10.0,SE,10.4,-,N/A,,Clear,140,2013-10-05 02:53:00
10:53 PM,75.9,66.0,71,29.87,10.0,SSE,9.2,-,N/A,,Clear,150,2013-10-05 03:53:00
11:53 PM,75.0,66.0,73,29.86,10.0,SE,9.2,-,N/A,,Clear,140,2013-10-05 04:53:00